Back to catalog

STARLINK-11286

AliveCommunicationsVLEO
NORAD 61050·PAYLOAD·🇺🇸 United States

Launched Sep 13, 2024 from Vandenberg Space Force Base

Loading…

Next Passes (next 24 hours)

TLE

FreshSource: CelesTrak SupGP

Epoch: Sep 14, 2026, 21:29 UTC

1 61050C 24164A   26257.89562500 -.00025181  00000+0 -20745-3 0  2572
2 61050  53.1570  98.5726 0001165  86.6536 344.5027 15.69719559    12

Track STARLINK-11286 in real time with AllMySat

Download on the App Store